Regional Weather Roundup
Issued by NWS

Home | Current Version | Previous Version | Text Only | Print | Product List | Glossary On
Versions: 1 2 3 4 5 6 7 8 9 10 11 12 13 14 15 16 17 18 19 20 21 22 23 24 25 26 27 28 29 30 31 32 33 34 35 36 37 38 39 40 41 42 43 44 45 46 47 48 49 50
000
ASUS43 KMKX 120521
RWRWI

WISCONSIN REGIONAL WEATHER ROUNDUP
NATIONAL WEATHER SERVICE MILWAUKEE/SULLIVAN WI
1100 PM CST MON DEC 11 2017

NOTE: "FAIR" INDICATES FEW OR NO CLOUDS BELOW 12,000 FEET WITH NO
SIGNIFICANT WEATHER AND/OR OBSTRUCTIONS TO VISIBILITY.

WIZ001-002-006>008-014>016-023>028-120600-
NORTHWEST WISCONSIN

CITY           SKY/WX    TMP DP  RH WIND       PRES   REMARKS
SUPERIOR ARPT  PTCLDY    11   3  69 NW13      30.20R WCI  -4
ASHLAND        CLOUDY    14   5  67 NW14      30.14S WCI  -1
HAYWARD        FLURRIES  15   7  70 VRB5      30.11R WCI   8
SIREN          CLEAR     13   5  70 N9        30.18R WCI   1
CUMBERLAND     PTCLDY    14   5  67 NW13      30.13S WCI   0
RICE LAKE      PTCLDY    15   7  70 NW8G17    30.16R WCI   4
CHETEK         CLOUDY    16   8  72 NW7       30.14R WCI   6
LADYSMITH      CLOUDY    16   7  68 NW16      30.10R WCI   0
EAU CLAIRE     CLEAR     16   6  65 N15G24    30.13R WCI   1
MENOMONIE      PTCLDY    18   9  67 NW10      30.16R WCI   6
NEW RICHMOND   CLEAR     15   6  69 NW13      30.19R WCI   1
OSCEOLA        CLEAR     15   8  72 NW8       30.23R WCI   4
$$

WIZ003>005-009-010-017-018-120600-
NORTH CENTRAL WISCONSIN

CITY           SKY/WX    TMP DP  RH WIND       PRES   REMARKS
MANITOWISH WTR LGT SNOW  12   8  86 NW13G18   29.97S WCI  -3
ARBOR VITAE    CLOUDY    17  11  78 NW15G23   29.97R WCI   2
WOODRUFF       CLOUDY    17  11  78 NW15G23   29.97R WCI   2
RHINELANDER    FLURRIES  15   9  76 NW7G17    29.96R WCI   5
EAGLE RIVER    CLOUDY    14   4  66 N16G22    29.94S WCI  -2
LAND O LAKES   LGT SNOW  14  10  84 N9        29.96R WCI   1
PHILLIPS       CLOUDY    13   6  74 NW9G18    30.02S WCI   1
TOMAHAWK       LGT SNOW  15   9  79 NW12      30.00R WCI   1
MEDFORD        CLOUDY    15   7  71 NW14G22   30.01R WCI   0
MERRILL        LGT SNOW  17  11  79 N9        30.00R WCI   5
$$

WIZ029-030-035-036-043>047-120600-
CENTRAL WISCONSIN

CITY           SKY/WX    TMP DP  RH WIND       PRES   REMARKS
WAUSAU         CLOUDY    18   8  65 NW10      29.98R WCI   6
MOSINEE        NOT AVBL
MARSHFIELD     MOCLDY    17   7  64 N18G25    30.01R WCI   1
STEVENS POINT  CLOUDY    18   7  61 NW17      30.00R WCI   3
WAUPACA        CLOUDY    23   8  51 NW14G24   29.99R WCI  11
WAUTOMA        FLURRIES  21  11  65 NW10      30.01R WCI  10
WISC RAPIDS    PTCLDY    19   7  59 N14G23    30.03R WCI   6
CAMP DOUGLAS   PTCLDY    20   8  60 NW13      30.04R WCI   7
$$

WIZ011>013-019>022-031-037>040-048>050-120600-
NORTHEAST WISCONSIN

CITY           SKY/WX    TMP DP  RH WIND       PRES   REMARKS
ANTIGO         CLOUDY    15   8  73 N17G25    29.94R WCI  -1
SHAWANO        PTCLDY    21   7  54 NW9G17    29.97R WCI  11
OCONTO         MOCLDY    19   6  57 N14G22    29.95R WCI   5
STURGEON BAY   CLOUDY    20   9  62 NW24G32   29.92R WCI   3
GREEN BAY      MOCLDY    22  11  62 N15G32    29.95R WCI   9
MANITOWOC      MOCLDY    22   9  57 N22G33    29.92R WCI   6
APPLETON       MOCLDY    21   7  53 N18       29.93R WCI   6
CLINTONVILLE   MOCLDY    21   7  53 NW15G25   29.98R WCI   8
OSHKOSH        CLOUDY    23  10  57 NW16G29   29.95R WCI  10
$$

WIZ032>034-041-042-053>061-120600-
SOUTHWEST WISCONSIN

CITY           SKY/WX    TMP DP  RH WIND       PRES   REMARKS
LA CROSSE      PTCLDY    20   9  62 NW16      30.12R WCI   6
SPARTA         MOCLDY    20  12  69 NW8G16    30.09S WCI  11
VIROQUA        PTCLDY    19  11  71 N14G23    30.04S WCI   6
BOSCOBEL       PTCLDY    24  11  57 N13G24    30.08R WCI  12
PRAIRIE DU CHI PTCLDY    25  13  61 NW10      30.09R WCI  15
PLATTEVILLE    CLOUDY    26  17  69 NW29      30.02R WCI  10
$$

WIZ056-057-062-063-064-067-068-120600-
SOUTH CENTRAL WISCONSIN

CITY           SKY/WX    TMP DP  RH WIND       PRES   REMARKS
REEDSBURG      PTCLDY    21   9  59 N14G20    30.03R WCI   8
BARABOO/DELLS  CLOUDY    22  13  70 NW14      30.01R WCI   9
LONE ROCK      MOCLDY    25  13  60 NW16G25   30.04R WCI  12
MINERAL POINT  CLOUDY    27  19  74 NW14G20   30.00R WCI  15
MADISON        PTCLDY    23  10  57 N18G35    29.98R WCI   9
MIDDLETON      CLOUDY    25  15  64 N16       30.00R WCI  13
WATERTOWN      CLOUDY    24  13  64 N16G28    29.95R WCI  10
MONROE         CLOUDY    28  16  59 NW15G29   29.95R WCI  17
JANESVILLE     CLOUDY    32  19  59 NW29G36   29.94R WCI  18
$$

WIZ051-052-058>065-066-070>072-120600-
SOUTHEAST WISCONSIN

CITY           SKY/WX    TMP DP  RH WIND       PRES   REMARKS
MILWAUKEE      FLURRIES  29  18  63 NW20G36   29.89R WCI  16
WAUKESHA       CLOUDY    23  12  63 NW22G33   29.92R WCI   8
MILWAUKEE/TIMM CLOUDY    27  14  59 N21G32    29.92R WCI  13
RACINE         CLOUDY    30  19  63 NW18G37   29.89R WCI  18
BURLINGTON     FLURRIES  39  33  80 N23G35    29.91R WCI  28
KENOSHA        CLOUDY    31  20  63 NW14G25   29.88R WCI  21
FOND DU LAC    MOCLDY    23  10  57 N22G30    29.95R WCI   8
SHEBOYGAN      CLOUDY    23  13  65 N17       29.91R WCI   9
WEST BEND      CLOUDY    25  12  58 N17G33    29.91R WCI  11
JUNEAU         PTCLDY    22   9  58 NW18G26   29.96R WCI   7
$$

LSZ147-162-120600-
LAKE SUPERIOR

STATION/POSITION TIME  TEMP    WIND        PRES    WAVE
                       AIR SEA DIR/SP/G            HT/PER
                 (UTC) (F)     (DEG/KT/KT) (MB)    (FT/S)
DEVILS ISLAND    0500   16     340/ 18/ 21 1022.0R
SAXON HARBOR     0440   19                 1019.6R
$$

LMZ867-665-643>646-120600-
LAKE MICHIGAN

STATION/POSITION TIME  TEMP    WIND        PRES    WAVE
                       AIR SEA DIR/SP/G            HT/PER
                 (UTC) (F)     (DEG/KT/KT) (MB)    (FT/S)
NORTHPORT PIER   0501   22     320/ 32/ 36 1012.2
KEWAUNEE LAKESHO 0454   21     340/ 11/ 18 1012.5R
SHEBOYGAN LAKESH 0500   25     330/ 22/ 27 1013.8R
PORT WASHINGTON  0430   27     330/ 12/ 26 1013.5R
MILWAUKEE LAKESH 0500   28     330/ 11/ 16   N/A
KENOSHA   LAKESH 0500   31     330/ 17/ 23 1011.9
$$

TC  - TEMPERATURE IN CELSIUS
VSB - VISIBILITY IN STATUTE MILES
WCI - WIND CHILL INDEX
HX  - HEAT INDEX




USA.gov is the U.S. government's official web portal to all federal, state and local government web resources and services.